Terminal Aerodrome Forecast
Issued by NWS

Home | Current Version | Previous Version | Text Only | Print | Product List | Glossary On
Versions: 1 2 3 4 5 6 7 8 9 10 11 12 13 14 15 16
457
FTUS45 KVEF 282326
TAFDAG
TAF
KDAG 282326Z 2900/2924 25018G28KT P6SM SCT060 BKN100
     FM290400 25017G25KT P6SM SCT100 BKN150
     FM291000 26015G25KT P6SM FEW150=

USA.gov is the U.S. government's official web portal to all federal, state and local government web resources and services.